Weather observations for the past three days for
Steven A Bean Municipal Airport
Imperial (Metric)
Date Time (edt) Wind (mph) Vis. (mi.) Weather Sky Cond. Temperature (ºF) Relative Humidity Wind Chill (°F) Heat Index (°F) Pressure Precipitation (in)
Air Dwpt 6 hour altimeter (in) sea level (mb) 1 hr 3 hr 6 hr
Max. Min.
22 06:35 Calm 10.00 Fair CLR 53.6 53.6 100% 30.12 0.0
22 06:15 Calm 10.00 Fair CLR 51.8 51.8 100% 30.12 0.0
22 05:55 Calm 10.00 Fair CLR 51.8 51.8 100% 30.11 0.0
22 05:35 Calm 10.00 Fair CLR 50 50 100% 30.11 0.0
22 05:15 Calm 10.00 Fair CLR 50 50 100% 30.1 0.0
22 04:55 Calm 10.00 Fair CLR 50 50 100% 30.1 0.0
22 04:35 Calm 10.00 Fair CLR 50 50 100% 30.1 0.0
22 04:15 Calm 10.00 Fair CLR 51.8 51.8 100% 30.09 0.0
22 03:55 Calm 10.00 Fair CLR 51.8 51.8 100% 30.09 0.0
22 03:35 Calm 10.00 Fair CLR 51.8 51.8 100% 30.09 0.0
22 03:15 SW 3 10.00 Fair CLR 51.8 51.8 100% 30.1 0.0
22 02:55 Calm 10.00 Fair CLR 50 50 100% 30.1 0.0
22 02:35 SW 3 10.00 Fair CLR 51.8 51.8 100% 30.1 0.0
22 02:15 W 3 10.00 Fair CLR 50 50 100% 30.1 0.0
22 01:55 W 5 10.00 Fair CLR 51.8 51.8 100% 30.1 0.0
22 01:35 W 5 10.00 Fair CLR 51.8 51.8 100% 30.1 0.0
22 01:15 Calm 10.00 Fair CLR 50 50 100% 30.1 0.0
22 00:55 Calm 10.00 Fair CLR 51.8 50 94% 30.1 0.0
22 00:35 W 3 10.00 Fair CLR 51.8 50 94% 30.09 0.0
22 00:15 NW 5 10.00 Fair CLR 51.8 50 94% 30.09 0.0
21 23:55 NW 3 10.00 A Few Clouds FEW033 51.8 50 94% 30.1 0.0
21 23:35 NW 3 10.00 Fair CLR 51.8 50 94% 30.1 0.0
21 23:15 NW 3 10.00 Fair CLR 53.6 50 88% 30.09 0.0
21 22:55 Calm 10.00 Fair CLR 53.6 50 88% 30.1 0.0
21 22:35 Calm 10.00 Fair CLR 55.4 50 82% 30.1 0.0
21 22:15 Calm 10.00 A Few Clouds FEW037 53.6 50 88% 30.1 0.0
21 21:55 Calm 10.00 Fair CLR 55.4 51.8 88% 30.1 0.0
21 21:35 Calm 10.00 Fair CLR 55.4 50 82% 30.1 0.0
21 21:15 Calm 10.00 Fair CLR 57.2 50 77% 30.1 0.0
21 20:55 NW 3 10.00 Fair CLR 59 50 72% 30.09 0.0
21 20:35 W 3 10.00 Fair CLR 59 50 72% 30.08 0.0
21 20:15 NW 6 10.00 Fair CLR 60.8 48.2 63% 30.08 0.0
21 19:55 W 5 10.00 Fair CLR 62.6 48.2 60% 30.08 0.0
21 19:35 W 7 G 14 10.00 Fair CLR 64.4 48.2 56% 30.07 0.0
21 19:15 NW 13 10.00 Fair CLR 64.4 48.2 56% 30.06 0.0
21 18:55 NW 12 G 17 10.00 Fair CLR 66.2 46.4 49% 30.06 0.0
21 18:35 NW 12 10.00 Fair CLR 66.2 46.4 49% 30.05 0.0
21 17:35 NW 14 G 22 10.00 Fair CLR 68 44.6 43% 30.05 0.0
21 16:55 NW 15 G 22 10.00 Fair CLR 68 44.6 43% 30.05 0.0
21 16:35 NW 12 G 18 10.00 Fair CLR 68 44.6 43% 30.05 0.0
21 16:15 W 9 G 20 10.00 Fair CLR 69.8 46.4 43% 30.05 0.0
21 15:55 W 10 G 17 10.00 Fair CLR 69.8 46.4 43% 30.05 0.0
21 15:35 W 12 G 18 10.00 Fair CLR 68 44.6 43% 30.05 0.0
21 15:15 NW 14 G 20 10.00 Fair CLR 68 44.6 43% 30.05 0.0
21 14:55 W 13 G 20 10.00 Fair CLR 68 42.8 40% 30.05 0.0
21 14:15 NW 14 G 23 10.00 Fair CLR 68 44.6 43% 30.05 0.0
21 13:55 W 10 G 18 10.00 Fair CLR 68 42.8 40% 30.05 0.0
21 13:35 W 13 G 23 10.00 Fair CLR 68 42.8 40% 30.05 0.0
21 13:15 NW 13 G 23 10.00 Fair CLR 68 39.2 35% 30.05 0.0
21 12:55 NW 15 G 23 10.00 Fair CLR 66.2 42.8 43% 30.05 0.0
21 12:35 W 10 10.00 Fair CLR 66.2 42.8 43% 30.05 0.0
21 12:15 W 10 10.00 Fair CLR 66.2 42.8 43% 30.05 0.0
21 11:55 W 10 10.00 Fair CLR 64.4 42.8 46% 30.05 0.0
21 11:35 W 12 G 18 10.00 Fair CLR 66.2 42.8 43% 30.05 0.0
21 11:15 NW 12 10.00 Fair CLR 64.4 42.8 46% 30.05 0.0
21 10:55 NW 13 G 18 10.00 Fair CLR 64.4 42.8 46% 30.05 0.0
21 10:35 W 8 G 16 10.00 Fair CLR 64.4 44.6 49% 30.05 0.0
21 10:15 NW 13 10.00 Fair CLR 62.6 44.6 52% 30.05 0.0
21 09:55 NW 13 10.00 Fair CLR 60.8 44.6 55% 30.05 0.0
21 09:35 NW 10 G 16 10.00 Fair CLR 62.6 46.4 56% 30.05 0.0
21 09:15 W 8 G 14 10.00 Partly Cloudy SCT095 60.8 46.4 59% 30.05 0.0
21 08:55 NW 8 10.00 Mostly Cloudy BKN095 60.8 46.4 59% 30.05 0.0
21 08:35 W 5 10.00 Mostly Cloudy BKN100 59 46.4 63% 30.05 0.0
21 08:15 NW 8 10.00 A Few Clouds FEW100 60.8 46.4 59% 30.06 0.0
21 07:55 W 6 10.00 Mostly Cloudy BKN100 60.8 48.2 63% 30.05 0.0
21 07:35 NW 7 10.00 Overcast OVC100 59 48.2 68% 30.05 0.0
21 07:15 NW 8 10.00 Overcast OVC110 60.8 48.2 63% 30.04 0.0
21 06:55 NW 7 10.00 Overcast OVC110 59 48.2 68% 30.04 0.0
21 06:35 NW 7 10.00 Mostly Cloudy BKN110 59 51.8 77% 30.05 0.0
21 06:15 W 5 10.00 Mostly Cloudy FEW033 SCT090 BKN110 59 55.4 88% 30.04 0.0
21 05:55 NW 6 10.00 Mostly Cloudy FEW027 BKN033 BKN040 59 55.4 88% 30.04 0.0
21 05:35 NW 6 10.00 Mostly Cloudy FEW017 SCT021 BKN027 59 57.2 94% 30.03 0.0
21 05:15 W 5 10.00 Overcast BKN018 OVC025 60.8 59 94% 30.03 0.0
21 04:55 NW 8 10.00 Overcast BKN022 OVC026 60.8 59 94% 30.02 0.0
21 04:35 W 7 10.00 Overcast BKN026 BKN033 OVC046 60.8 59 94% 30.02 0.0
21 04:15 W 3 10.00 Overcast SCT033 BKN046 OVC055 60.8 59 94% 30.01 0.0
21 03:55 W 6 10.00 Overcast SCT026 BKN050 OVC060 60.8 59 94% 30.01 0.0
21 03:35 Vrbl 5 10.00 Overcast BKN025 OVC055 60.8 60.8 100% 30.01 0.0
21 03:15 W 3 10.00 Overcast SCT021 BKN026 OVC055 60.8 60.8 100% 30.01 0.0
21 02:55 W 3 10.00 Overcast BKN020 BKN026 OVC095 60.8 60.8 100% 30.01 0.0
21 02:35 Calm 10.00 Overcast FEW026 BKN075 OVC095 62.6 60.8 94% 30.01 0.0
21 02:15 W 7 10.00 Overcast SCT065 OVC075 62.6 60.8 94% 30.01 0.0
21 01:55 W 7 10.00 Overcast BKN060 OVC070 62.6 60.8 94% 30.01 0.0
21 01:35 Vrbl 6 10.00 Overcast FEW060 BKN075 OVC090 62.6 60.8 94% 30.01 0.0
21 01:15 Vrbl 7 10.00 Overcast BKN055 OVC075 62.6 60.8 94% 30.01 0.0
21 00:55 NW 9 G 17 10.00 Overcast BKN055 OVC065 62.6 60.8 94% 30.01 0.0
21 00:35 NW 8 10.00 Overcast FEW045 BKN050 OVC060 62.6 60.8 94% 30.02 0.0
20 23:55 NW 6 10.00 Overcast OVC070 62.6 59 88% 30.03 0.0
20 23:35 NW 6 10.00 Mostly Cloudy FEW048 FEW055 BKN075 60.8 59 94% 30.02 0.0
20 23:15 SW 3 10.00 Mostly Cloudy FEW055 BKN070 62.6 59 88% 30.01 0.0
20 22:55 Calm 10.00 Overcast BKN055 OVC070 64.4 59 83% 30.01 0.0
20 22:35 Calm 10.00 Overcast OVC065 64.4 57.2 78% 30.02 0.0
20 22:15 Calm 10.00 Mostly Cloudy BKN065 62.6 59 88% 30.02 0.0
20 21:55 W 3 10.00 Partly Cloudy SCT065 64.4 57.2 78% 30.02 0.0
20 21:35 W 5 10.00 Fair CLR 64.4 57.2 78% 30.03 0.0
20 21:15 W 5 10.00 Fair CLR 64.4 57.2 78% 30.02 0.0
20 20:55 W 5 10.00 Fair CLR 64.4 57.2 78% 30.02 0.0
20 20:35 SW 3 10.00 Fair CLR 64.4 57.2 78% 30.02 0.0
20 20:15 Calm 10.00 Fair CLR 66.2 57.2 73% 30.02 0.0
20 19:55 W 3 10.00 Fair CLR 68 55.4 64% 30.02 0.0
20 19:35 W 6 10.00 Fair CLR 69.8 55.4 60% 30.02 0.0
20 19:15 W 5 10.00 Fair CLR 69.8 55.4 60% 30.02 0.0
20 18:55 W 7 G 15 10.00 Fair CLR 71.6 53.6 53% 30.02 0.0
20 18:35 W 8 10.00 Fair CLR 71.6 53.6 53% 30.02 0.0
20 18:15 W 8 10.00 Fair CLR 73.4 53.6 50% 30.02 0.0
20 17:55 W 8 G 14 10.00 Fair CLR 71.6 53.6 53% 30.02 0.0
20 17:35 W 9 G 15 10.00 A Few Clouds FEW060 71.6 53.6 53% 30.02 0.0
20 17:15 W 12 10.00 A Few Clouds FEW050 FEW060 73.4 53.6 50% 30.02 0.0
20 16:55 W 9 G 16 10.00 Partly Cloudy FEW050 SCT060 73.4 53.6 50% 30.03 0.0
20 16:35 Vrbl 7 G 14 10.00 Mostly Cloudy SCT050 BKN060 73.4 53.6 50% 30.03 0.0
20 16:15 W 12 10.00 Mostly Cloudy BKN055 BKN065 73.4 51.8 47% 30.03 0.0
20 15:55 NW 12 10.00 Mostly Cloudy BKN055 73.4 53.6 50% 30.03 0.0
20 15:35 W 9 G 16 10.00 Partly Cloudy SCT055 71.6 51.8 50% 30.03 0.0
20 15:15 W 8 G 14 10.00 A Few Clouds FEW050 73.4 53.6 50% 30.03 0.0
20 14:55 W 9 9.00 Partly Cloudy SCT050 73.4 53.6 50% 30.03 0.0
20 14:35 W 7 10.00 Partly Cloudy SCT050 73.4 55.4 53% 30.04 0.0
20 14:15 W 9 G 17 10.00 Partly Cloudy SCT050 73.4 53.6 50% 30.05 0.0
20 13:55 W 9 G 15 10.00 A Few Clouds FEW049 FEW055 73.4 55.4 53% 30.05 0.0
20 13:35 W 10 10.00 Mostly Cloudy BKN046 BKN055 71.6 53.6 53% 30.06 0.0
20 13:15 W 8 10.00 Mostly Cloudy BKN046 71.6 55.4 57% 30.06 0.0
20 12:55 W 9 10.00 Mostly Cloudy BKN043 73.4 55.4 53% 30.06 0.0
20 12:35 W 8 10.00 Partly Cloudy SCT043 SCT049 71.6 55.4 57% 30.07 0.0
20 12:15 W 12 10.00 Partly Cloudy SCT044 71.6 55.4 57% 30.07 0.0
20 11:55 W 10 10.00 Mostly Cloudy BKN044 69.8 55.4 60% 30.08 0.0
20 11:35 Vrbl 7 G 14 10.00 Partly Cloudy SCT043 69.8 53.6 57% 30.08 0.0
20 11:15 W 7 G 16 10.00 Mostly Cloudy BKN040 68 55.4 64% 30.08 0.0
20 10:55 Vrbl 7 10.00 Partly Cloudy SCT039 SCT045 71.6 55.4 57% 30.08 0.0
20 10:35 W 9 10.00 Partly Cloudy SCT038 SCT043 69.8 55.4 60% 30.08 0.0
20 10:15 W 5 G 12 10.00 Partly Cloudy SCT037 68 55.4 64% 30.09 0.0
20 09:55 Vrbl 6 10.00 A Few Clouds FEW033 FEW042 68 57.2 69% 30.09 0.0
20 09:35 W 7 10.00 A Few Clouds FEW029 FEW042 68 57.2 69% 30.1 0.0
20 09:15 Vrbl 7 10.00 Fair CLR 66.2 57.2 73% 30.11 0.0
20 08:55 Vrbl 7 10.00 Fair CLR 66.2 59 78% 30.11 0.0
20 08:35 W 8 10.00 A Few Clouds FEW040 64.4 59 83% 30.11 0.0
20 08:15 Vrbl 6 10.00 A Few Clouds FEW042 62.6 60.8 94% 30.11 0.0
20 07:55 Calm 10.00 A Few Clouds FEW042 60.8 60.8 100% 30.11 0.0
20 07:35 SW 5 10.00 Fair CLR 60.8 59 94% 30.11 0.0
20 07:15 Calm 10.00 Fair CLR 59 59 100% 30.1 0.0
20 06:55 Calm 10.00 Fair CLR 59 59 100% 30.1 0.0
20 06:35 Calm 10.00 Fair CLR 59 59 100% 30.1 0.0
20 06:15 Calm 10.00 Fair CLR 57.2 57.2 100% 30.1 0.0
20 05:55 Calm 10.00 Fair CLR 55.4 55.4 100% 30.1 0.0
20 05:35 Calm 10.00 A Few Clouds FEW050 55.4 55.4 100% 30.1 0.0
20 05:15 Calm 10.00 Partly Cloudy FEW006 SCT050 55.4 55.4 100% 30.11 0.0
20 04:55 Calm 10.00 Mostly Cloudy BKN006 BKN050 55.4 55.4 100% 30.11 0.0
20 04:35 Calm 10.00 Fair CLR 55.4 55.4 100% 30.11 0.0
20 04:15 Calm 10.00 Fair CLR 55.4 55.4 100% 30.11 0.0
20 03:55 Calm 10.00 Fair CLR 53.6 53.6 100% 30.11 0.0
20 03:35 Calm 10.00 Fair CLR 53.6 53.6 100% 30.11 0.0
20 03:15 Calm 10.00 Fair CLR 55.4 55.4 100% 30.11 0.0
20 02:55 Calm 10.00 Fair CLR 55.4 55.4 100% 30.12 0.0
20 02:35 Calm 10.00 Fair CLR 57.2 57.2 100% 30.12 0.0
20 02:15 Calm 10.00 Fair CLR 57.2 57.2 100% 30.12 0.0
20 01:55 Calm 10.00 Fair CLR 57.2 57.2 100% 30.13 0.0
20 01:35 W 5 10.00 Fair CLR 59 57.2 94% 30.13 0.0
20 01:15 Calm 10.00 Fair CLR 55.4 55.4 100% 30.12 0.0
20 00:55 Calm 10.00 Fair CLR 55.4 55.4 100% 30.12 0.0
20 00:35 Calm 10.00 Fair CLR 57.2 55.4 94% 30.13 0.0
20 00:15 Calm 10.00 Fair CLR 57.2 55.4 94% 30.13 0.0
19 23:55 Calm 10.00 A Few Clouds FEW110 57.2 55.4 94% 30.13 0.0
19 23:35 Calm 10.00 Partly Cloudy SCT110 59 57.2 94% 30.13 0.0
19 23:15 Calm 10.00 A Few Clouds FEW100 57.2 55.4 94% 30.13 0.0
19 22:55 Calm 10.00 A Few Clouds FEW100 57.2 57.2 100% 30.13 0.0
19 22:35 Calm 10.00 A Few Clouds FEW100 59 55.4 88% 30.13 0.0
19 22:15 Calm 10.00 Partly Cloudy SCT100 59 55.4 88% 30.13 0.0
19 21:55 Calm 10.00 A Few Clouds FEW100 60.8 55.4 83% 30.13 0.0
19 21:35 Calm 10.00 Mostly Cloudy BKN095 60.8 55.4 83% 30.13 0.0
19 21:15 W 6 10.00 Mostly Cloudy BKN095 60.8 55.4 83% 30.13 0.0
19 20:55 W 5 10.00 A Few Clouds FEW100 62.6 55.4 77% 30.12 0.0
19 20:35 NW 3 10.00 Fair CLR 62.6 55.4 77% 30.12 0.0
19 20:15 NW 3 10.00 Fair CLR 64.4 53.6 68% 30.12 0.0
19 19:55 W 6 10.00 Fair CLR 66.2 53.6 64% 30.12 0.0
19 19:35 W 6 10.00 Fair CLR 68 53.6 60% 30.11 0.0
19 19:15 W 7 10.00 Fair CLR 69.8 51.8 53% 30.11 0.0
19 18:55 W 7 10.00 Fair CLR 69.8 51.8 53% 30.11 0.0
19 18:35 W 8 10.00 Fair CLR 71.6 50 47% 30.1 0.0
19 18:15 Vrbl 7 10.00 A Few Clouds FEW050 FEW060 71.6 51.8 50% 30.1 0.0
19 17:55 NW 8 G 16 10.00 Mostly Cloudy BKN050 71.6 51.8 50% 30.09 0.0
19 17:35 NW 9 10.00 Mostly Cloudy BKN050 BKN060 71.6 51.8 50% 30.09 0.0
19 17:15 NW 10 10.00 Mostly Cloudy BKN055 BKN065 73.4 51.8 47% 30.1 0.0
19 16:55 NW 10 10.00 A Few Clouds FEW060 71.6 51.8 50% 30.1 0.0
19 16:35 NW 9 10.00 Fair CLR 73.4 51.8 47% 30.09 0.0
19 16:15 Vrbl 7 G 14 10.00 Partly Cloudy FEW055 SCT065 73.4 53.6 50% 30.09 0.0
19 15:55 W 9 10.00 Mostly Cloudy SCT050 BKN055 BKN065 71.6 53.6 53% 30.09 0.0
19 15:35 NW 10 10.00 Partly Cloudy FEW050 SCT060 73.4 53.6 50% 30.09 0.0
19 15:15 W 12 G 18 10.00 Mostly Cloudy SCT050 BKN060 71.6 51.8 50% 30.09 0.0
19 14:55 NW 14 10.00 Partly Cloudy SCT050 SCT060 73.4 51.8 47% 30.09 0.0
19 14:35 W 8 10.00 A Few Clouds FEW050 73.4 51.8 47% 30.1 0.0
19 14:15 W 10 G 16 10.00 A Few Clouds FEW050 73.4 51.8 47% 30.1 0.0
19 13:55 W 9 G 18 10.00 Fair CLR 73.4 51.8 47% 30.1 0.0
19 13:35 NW 12 10.00 Partly Cloudy FEW050 SCT055 73.4 51.8 47% 30.1 0.0
19 13:15 NW 10 10.00 Partly Cloudy SCT050 71.6 50 47% 30.1 0.0
19 12:55 NW 12 10.00 A Few Clouds FEW050 FEW060 73.4 53.6 50% 30.1 0.0
19 12:35 W 10 10.00 Partly Cloudy SCT050 SCT060 71.6 51.8 50% 30.11 0.0
19 12:15 NW 10 G 17 10.00 Mostly Cloudy BKN048 BKN055 69.8 51.8 53% 30.11 0.0
19 11:55 W 8 G 16 10.00 Partly Cloudy FEW045 SCT050 71.6 51.8 50% 30.11 0.0
19 11:15 W 9 G 16 10.00 A Few Clouds FEW040 69.8 53.6 57% 30.1 0.0
19 10:55 NW 8 G 16 10.00 A Few Clouds FEW039 FEW045 68 51.8 56% 30.1 0.0
19 10:35 Vrbl 7 G 16 10.00 Fair CLR 68 55.4 64% 30.11 0.0
19 10:15 Vrbl 5 G 13 10.00 Fair CLR 68 57.2 69% 30.11 0.0
19 09:55 W 7 10.00 Fair CLR 66.2 57.2 73% 30.1 0.0
19 09:35 W 7 10.00 Fair CLR 66.2 57.2 73% 30.1 0.0
19 09:15 W 6 10.00 A Few Clouds FEW023 64.4 57.2 78% 30.1 0.0
19 08:55 W 6 G 13 10.00 Fair CLR 62.6 55.4 77% 30.1 0.0
19 08:35 W 8 10.00 Fair CLR 62.6 55.4 77% 30.1 0.0
19 08:15 W 7 10.00 Fair CLR 60.8 55.4 83% 30.09 0.0
19 07:55 W 8 10.00 Fair CLR 60.8 57.2 88% 30.09 0.0
19 07:35 Vrbl 6 10.00 Fair CLR 60.8 55.4 83% 30.08 0.0
19 07:15 Vrbl 6 10.00 Fair CLR 59 55.4 88% 30.07 0.0
19 06:55 W 6 10.00 Fair CLR 57.2 55.4 94% 30.06 0.0
Date Time (edt) Wind (mph) Vis. (mi.) Weather Sky Cond. Air Dwpt Max. Min. Relative Humidity Wind Chill (°F) Heat Index (°F) altimeter (in) sea level (mb) 1 hr 3 hr 6 hr
6 hour
Temperature (ºF) Pressure Precipitation (in)